SCOUT X-4 DEB, 976

Orbit data source: Space-Track

SCOUT X-4 DEB, 976 is space debris in LEO originally from a launch on Sat, 10 Oct 1964 UTC launched from the Air Force Western Test Range (AFWTR). Debris objects in space refer to the collection of defunct objects orbiting the Earth. Examples of debris include non-operational satellites, rocket bodies, and fragments generated from explosions, collisions, or faulty payload assembly.

Loading next visibility...
Identifier
976, 1964-064C
Orbit
LEO
Country
Flag of USUS
Related business
Manufacturer
APL
Mission
Spacecraft
Bus & Motor
Unknown
Mass
Unknown
Launch date (UTC)
1964-10-10 (61 years ago)
Launch vehicle
Unknown
Launch site
Air Force Western Test Range (AFWTR)
Object type
Payload
Rocket body
Debris
Shape & HBR
Unknown shape, 0.1 m
Radar Cross Section
Small (<0.1 m²)

Expand to show TLE details & history
Last TLE update: 4 days ago

TLE from 4 days ago
0 SCOUT X-4 DEB
1 00976U 64064C   26032.25521832  .00000633  00000-0  34777-3 0  9996
2 00976  79.3124 119.0514 0114592  37.4041 323.5028 14.07959240123844
Epoch: 2026-02-01T06:07Z
TLE epoch observation values (Epoch: 2026-02-01T06:07:30.862Z)
Latitude
Longitude
-104.29467°
Altitude
802.785 km
Speed
7.486 km/s
True Right ascension
07h 56m 12s
True Declination
0° 00' 00"
Sunlit
Object was in full shadow at epoch
Visualization orbit readout
Latitude
Unknown
Longitude
Unknown
Altitude
Unknown
Speed
Unknown
Apparent Right ascension
Unknown
Apparent Declination
Unknown
Sunlit
N/A
Visualization observer readout
Local Sidereal Time
05:16:45
Azimuth
Unknown
Elevation
Unknown
Doppler factor
Unknown
Orbital elements
Apogee altitude
946.627 km
Perigee altitude
780.657 km
Semi-major axis
7,241.779 km
Eccentricity
0.01146
Inclination
79.3124°
RAAN
119.0514°
Arg. of periapsis
37.4041°
True anomaly
322.7127°
Mean anomaly
323.5028°
Eccentric anomaly
323.10867°
Mean motion
3.52189 °/min
Orbital period
102.22 mins
BSTAR
0.00034777
Loading maneuver chart data...
Computing Atmospheric mass density...
Loading historical data...
Loading historical data...
Loading historical data...
Loading historical data...
Loading historical data...
Loading historical data...
Loading historical data...
Other satellites on launch #64 in the year 1964 (1964-10-10 UTC)

Documentation

Showing up to 5 results
|